Regional Weather Roundup
Issued by NWS

Home | Current Version | Previous Version | Graphics & Text | Print | Product List | Glossary On
Versions: 1 2 3 4 5 6 7 8 9 10 11 12 13 14 15 16 17 18 19 20 21 22 23 24 25 26 27 28 29 30 31 32 33 34 35 36 37 38 39 40 41 42 43 44 45 46 47 48 49 50
000
ASUS43 KDTX 260010
RWRMI
MICHIGAN HOURLY REGIONAL WEATHER ROUNDUP
NATIONAL WEATHER SERVICE DETROIT/PONTIAC MI
800 PM EDT SAT APR 25 2015

NOTE: "FAIR" INDICATES FEW OR NO CLOUDS BELOW 12,000 FEET WITH NO
SIGNIFICANT WEATHER AND/OR OBSTRUCTION TO VISIBILITY.

MIZ047>049-052>055-059>063-066>070-074>076-081>083-260100-
SOUTHEAST LOWER MICHIGAN

CITY           SKY/WX    TMP DP  RH WIND       PRES   REMARKS
ADRIAN         MOCLDY    46  32  58 E12       29.78F
6HR MIN TEMP:  46; 6HR MAX TEMP:  48;

ALMA           CLOUDY    46  26  45 NE13G21   29.86R
6HR MIN TEMP:  46; 6HR MAX TEMP:  53;

ANN ARBOR      MOCLDY    47  31  53 SE9       29.79R
BAD AXE        CLEAR     40  23  49 N8        29.88S
DETROIT CITY   PTCLDY    46  27  47 E10       29.82R
6HR MIN TEMP:  45; 6HR MAX TEMP:  52;

DETROIT        MOCLDY    49  28  44 E5        29.81S
6HR MIN TEMP:  49; 6HR MAX TEMP:  54;

FLINT          MOCLDY    48  24  39 NE15      29.84R
6HR MIN TEMP:  48; 6HR MAX TEMP:  56;

GROSSE ILE     MOCLDY    46  25  42 E6        29.79S
HILLSDALE      CLOUDY    47  32  56 E7        29.75F
6HR MIN TEMP:  46; 6HR MAX TEMP:  47;

HOWELL         PTCLDY    48  17  29 NE8       29.80R
6HR MIN TEMP:  48; 6HR MAX TEMP:  55;


CITY           SKY/WX    TMP DP  RH WIND       PRES   REMARKS
JACKSON        MOCLDY    48  27  44 SE6       29.77S
6HR MIN TEMP:  47; 6HR MAX TEMP:  51;

LAMBERTVILLE   CLOUDY    45  27  49 E7        29.78F
LANSING        MOCLDY    49  26  41 NE14G21   29.81R
6HR MIN TEMP:  49; 6HR MAX TEMP:  57;

LAPEER         NOT AVBL
MASON          MOCLDY    49  23  35 NE14      29.79R
MONROE         CLOUDY    45  27  49 E6        29.78F
MT. CLEMENS    MOCLDY    46  27  46 NE13      29.80R
6HR MIN TEMP:  46; 6HR MAX TEMP:  53;

PONTIAC        MOCLDY    47  23  38 NE7       29.80S
6HR MIN TEMP:  47; 6HR MAX TEMP:  53;

PORT HOPE        N/A     39  27  62 NW7       29.88R
6HR MIN TEMP:  38; 6HR MAX TEMP:  42;

PORT HURON     PTCLDY    41  25  52 N13       29.84S
TRI CITIES     PTCLDY    43  25  49 NE18      29.88R
6HR MIN TEMP:  43; 6HR MAX TEMP:  51;

YPSILANTI      CLOUDY    50  33  52 SE6       29.80R
6HR MIN TEMP:  50; 6HR MAX TEMP:  56;

$$
MIZ043>046-050>051-056>058-064>065-071>073-077>080-260100-
SOUTHWEST LOWER MICHIGAN

CITY           SKY/WX    TMP DP  RH WIND       PRES   REMARKS
BATTLE CREEK   MOCLDY    51  31  46 E6        29.77S
6HR MIN TEMP:  47; 6HR MAX TEMP:  51;

BENTON HARBOR  CLOUDY    48  39  71 E5        29.79R
6HR MIN TEMP:  47; 6HR MAX TEMP:  49; 6HR PCP:  0.03;

BIG RAPIDS     CLOUDY    48  20  33 E13G20    29.84R
6HR MIN TEMP:  48; 6HR MAX TEMP:  55;

COLDWATER      CLOUDY    46  29  52 E5        29.76S
6HR MIN TEMP:  46; 6HR MAX TEMP:  47;

HOLLAND        MOCLDY    55  29  36 NE8       29.79R
6HR MIN TEMP:  51; 6HR MAX TEMP:  57;

GRAND RAPIDS   MOCLDY    49  27  42 NE18      29.81R
6HR MIN TEMP:  49; 6HR MAX TEMP:  57;

KALAMAZOO      CLOUDY    50  34  54 E3        29.78R
6HR MIN TEMP:  47; 6HR MAX TEMP:  51;

MARSHALL       MOCLDY    48  28  46 E3        29.76S
MUSKEGON       MOCLDY    52  25  35 E12       29.81R
6HR MIN TEMP:  52; 6HR MAX TEMP:  57;

$$
MIZ016>042-260100-
NORTHERN LOWER MICHIGAN

CITY           SKY/WX    TMP DP  RH WIND       PRES   REMARKS
ALPENA         CLEAR     48  23  37 E6        29.89S
6HR MIN TEMP:  47; 6HR MAX TEMP:  51;

BEAVER ISLAND  CLEAR     47  20  34 NE5       29.92R
6HR MIN TEMP:  47; 6HR MAX TEMP:  50;

BELLAIRE       CLEAR     52  19  27 N10G18    29.88R
6HR MIN TEMP:  52; 6HR MAX TEMP:  57;

CADILLAC       CLEAR     50  22  33 E12       29.84R
CHARLEVOIX     CLEAR     49  23  36 NE9       29.93R
6HR MIN TEMP:  43; 6HR MAX TEMP:  52;

FRANKFORT      CLEAR     49  16  26 NE7       29.87S
GAYLORD        CLEAR     47  21  35 E6        29.88R
6HR MIN TEMP:  47; 6HR MAX TEMP:  52;

GRAYLING       CLEAR     48  20  33 NE8       29.88R
6HR MIN TEMP:  48; 6HR MAX TEMP:  53;

HARBOR SPRINGS CLEAR     48  22  36 E7        29.91R
HOUGHTON LAKE  CLEAR     46  20  35 E12       29.87R
6HR MIN TEMP:  46; 6HR MAX TEMP:  54;

MANISTEE       PTCLDY    52  21  30 N9G20     29.85R
OSCODA         CLEAR     43  23  45 NE3       29.89S
PELLSTON       CLEAR     50  22  33 E7        29.91R
6HR MIN TEMP:  49; 6HR MAX TEMP:  52;

TRAVERSE CITY  PTCLDY    49  26  41 VRB3      29.86R
6HR MIN TEMP:  48; 6HR MAX TEMP:  51;

$$
MIZ007>008-015-260100-
EASTERN UPPER MICHIGAN

CITY           SKY/WX    TMP DP  RH WIND       PRES   REMARKS
KINROSS        CLEAR     43  21  42 N13       29.91S
6HR MIN TEMP:  43; 6HR MAX TEMP:  52;

MACKINAC ISLAN CLEAR     45  24  42 CALM      29.91R
6HR MIN TEMP:  43; 6HR MAX TEMP:  49;

NEWBERRY       CLEAR     42  22  46 N8G21     29.93R
S. S. MARIE    CLEAR     41  21  44 W12       29.91R
6HR MIN TEMP:  41; 6HR MAX TEMP:  50;

$$
MIZ004>006-011>014-085-260100-
CENTRAL UPPER MICHIGAN

CITY           SKY/WX    TMP DP  RH WIND       PRES   REMARKS
MANISTIQUE     CLEAR     45  23  42 SE3       29.93R
6HR MIN TEMP:  45; 6HR MAX TEMP:  48;

ESCANABA       CLEAR     48  21  34 N7        29.93S
6HR MIN TEMP:  46; 6HR MAX TEMP:  50;

MENOMINEE      CLEAR     46  21  36 E8        29.92S
6HR MIN TEMP:  43; 6HR MAX TEMP:  46;

SAWYER-GWINN   CLEAR     37  19  48 N13       29.96R
$$
MIZ001>003-009>011-084-260100-
WESTERN UPPER MICHIGAN

CITY           SKY/WX    TMP DP  RH WIND       PRES   REMARKS
IRON MOUNTAIN  CLEAR     49  20  31 NE9       29.91R
6HR MIN TEMP:  49; 6HR MAX TEMP:  55;

HOUGHTON       CLEAR     41  20  43 E7        29.99R
6HR MIN TEMP:  41; 6HR MAX TEMP:  44;

COPPER HARBOR    N/A     36  31  82 N6        30.02R
6HR MIN TEMP:  36; 6HR MAX TEMP:  39;

IRONWOOD       CLEAR     43  25  49 N9        29.95R
6HR MIN TEMP:  43; 6HR MAX TEMP:  48;

$$

ABBREVIATIONS USED IN REMARKS
   TC - TEMPERATURE IN CELSIUS
  WCI - WIND CHILL INDEX
   HX - HEAT INDEX
  VSB - VISIBILITY



USA.gov is the U.S. government's official web portal to all federal, state and local government web resources and services.